Precipitable_Water
0.44 0.43 0.43 0.43 0.43 0.44 0.45 0.45 0.45 0.44 0.42 0.41 0.37 0.35 0.35 0.36 0.36 0.35 0.33 0.29 0.28 0.29 0.30 0.32 0.29 0.30 0.17 0.10 0.10 0.15 0.16 0.15 0.14 0.13 0.12 0.11 0.10 0.11 0.09 0.10 0.10 0.10 0.12 0.14 0.15 0.14 0.14
0.50 0.49 0.48 0.48 0.47 0.47 0.47 0.45 0.43 0.42 0.40 0.38 0.35 0.33 0.31 0.29 0.28 0.28 0.27 0.27 0.26 0.26 0.28 0.29 0.29 0.27 0.15 0.09 0.17 0.17 0.16 0.16 0.15 0.14 0.13 0.14 0.12 0.14 0.12 0.10 0.10 0.11 0.12 0.12 0.12 0.11 0.11
0.51 0.50 0.48 0.47 0.46 0.44 0.42 0.41 0.40 0.39 0.37 0.35 0.33 0.30 0.26 0.24 0.26 0.27 0.26 0.25 0.24 0.25 0.28 0.29 0.29 0.30 0.15 0.14 0.19 0.19 0.17 0.16 0.17 0.16 0.13 0.15 0.15 0.16 0.17 0.14 0.14 0.14 0.11 0.13 0.12 0.10 0.09
0.48 0.47 0.45 0.44 0.43 0.43 0.41 0.40 0.39 0.37 0.34 0.33 0.30 0.28 0.26 0.25 0.27 0.28 0.27 0.28 0.29 0.30 0.30 0.30 0.32 0.24 0.15 0.22 0.22 0.20 0.20 0.17 0.18 0.17 0.16 0.16 0.18 0.19 0.16 0.18 0.17 0.14 0.13 0.09 0.11 0.11 0.11
0.46 0.44 0.43 0.42 0.41 0.39 0.38 0.36 0.35 0.32 0.30 0.30 0.29 0.29 0.29 0.29 0.30 0.30 0.30 0.30 0.29 0.30 0.28 0.28 0.27 0.22 0.17 0.24 0.19 0.20 0.20 0.16 0.15 0.15 0.15 0.17 0.18 0.13 0.12 0.09 0.09 0.11 0.08 0.10 0.11 0.14 0.13
0.47 0.44 0.42 0.41 0.40 0.38 0.37 0.35 0.32 0.30 0.30 0.31 0.31 0.31 0.33 0.35 0.31 0.34 0.38 0.36 0.32 0.26 0.27 0.25 0.24 0.18 0.21 0.18 0.21 0.20 0.18 0.17 0.13 0.12 0.11 0.11 0.11 0.10 0.10 0.09 0.05 0.06 0.07 0.08 0.09 0.12 0.14
0.47 0.45 0.41 0.40 0.39 0.38 0.37 0.35 0.33 0.31 0.30 0.33 0.34 0.33 0.38 0.40 0.36 0.36 0.37 0.40 0.27 0.21 0.23 0.20 0.20 0.20 0.20 0.20 0.21 0.18 0.17 0.15 0.13 0.11 0.08 0.11 0.08 0.08 0.10 0.11 0.11 0.10 0.09 0.09 0.10 0.12 0.11
0.47 0.44 0.40 0.39 0.39 0.39 0.38 0.37 0.35 0.33 0.32 0.35 0.36 0.36 0.43 0.43 0.44 0.43 0.41 0.35 0.37 0.40 0.21 0.24 0.23 0.22 0.21 0.19 0.15 0.16 0.17 0.12 0.11 0.09 0.10 0.09 0.07 0.10 0.10 0.09 0.09 0.10 0.09 0.09 0.11 0.12 0.12
0.49 0.44 0.40 0.39 0.40 0.41 0.40 0.38 0.36 0.34 0.35 0.37 0.38 0.41 0.44 0.47 0.47 0.46 0.40 0.40 0.56 0.54 0.24 0.21 0.20 0.19 0.18 0.19 0.16 0.15 0.16 0.14 0.11 0.09 0.09 0.08 0.08 0.10 0.08 0.07 0.05 0.05 0.05 0.07 0.09 0.11 0.12
0.51 0.46 0.41 0.40 0.41 0.43 0.43 0.40 0.38 0.38 0.39 0.40 0.41 0.43 0.44 0.46 0.40 0.45 0.36 0.46 0.57 0.60 0.19 0.17 0.16 0.18 0.19 0.19 0.15 0.19 0.18 0.15 0.12 0.09 0.09 0.08 0.09 0.08 0.07 0.07 0.07 0.05 0.07 0.09 0.09 0.09 0.08
0.52 0.48 0.44 0.41 0.42 0.44 0.45 0.43 0.40 0.39 0.41 0.42 0.44 0.45 0.48 0.49 0.39 0.33 0.39 0.49 0.57 0.62 0.11 0.17 0.17 0.23 0.20 0.16 0.16 0.15 0.18 0.15 0.10 0.09 0.09 0.07 0.08 0.08 0.07 0.08 0.08 0.06 0.13 0.14 0.11 0.09 0.08
0.56 0.52 0.48 0.45 0.44 0.46 0.47 0.46 0.45 0.41 0.41 0.43 0.46 0.48 0.52 0.50 0.52 0.55 0.57 0.56 0.49 0.18 0.09 0.15 0.17 0.16 0.16 0.16 0.15 0.16 0.14 0.15 0.14 0.11 0.10 0.10 0.12 0.10 0.09 0.08 0.08 0.12 0.15 0.14 0.13 0.12 0.07
0.54 0.52 0.51 0.50 0.48 0.48 0.48 0.48 0.48 0.46 0.42 0.46 0.48 0.51 0.51 0.55 0.42 0.61 0.61 0.49 0.15 0.10 0.16 0.12 0.13 0.16 0.15 0.11 0.12 0.13 0.12 0.10 0.09 0.06 0.06 0.08 0.09 0.09 0.09 0.07 0.09 0.12 0.12 0.10 0.09 0.08 0.09
0.52 0.51 0.49 0.49 0.51 0.53 0.54 0.54 0.52 0.52 0.48 0.51 0.54 0.53 0.51 0.53 0.58 0.58 0.43 0.21 0.10 0.13 0.12 0.16 0.16 0.16 0.12 0.12 0.12 0.13 0.11 0.10 0.12 0.10 0.08 0.05 0.04 0.07 0.10 0.10 0.10 0.13 0.15 0.12 0.07 0.09 0.11
0.48 0.50 0.49 0.49 0.51 0.52 0.55 0.57 0.56 0.56 0.56 0.54 0.56 0.52 0.44 0.46 0.56 0.48 0.23 0.12 0.12 0.13 0.15 0.14 0.15 0.11 0.10 0.11 0.12 0.12 0.11 0.11 0.12 0.11 0.06 0.05 0.05 0.09 0.11 0.11 0.14 0.13 0.15 0.22 0.14 0.16 0.11
0.45 0.47 0.50 0.52 0.53 0.54 0.53 0.51 0.54 0.57 0.58 0.58 0.49 0.48 0.39 0.46 0.41 0.29 0.18 0.14 0.15 0.18 0.17 0.17 0.10 0.12 0.09 0.10 0.11 0.12 0.11 0.13 0.12 0.13 0.11 0.07 0.05 0.09 0.11 0.12 0.12 0.14 0.18 0.12 0.14 0.09 0.08
0.46 0.54 0.56 0.55 0.54 0.53 0.50 0.47 0.54 0.58 0.60 0.59 0.49 0.33 0.37 0.42 0.31 0.21 0.14 0.15 0.17 0.19 0.18 0.15 0.13 0.12 0.12 0.10 0.12 0.11 0.11 0.13 0.13 0.11 0.11 0.09 0.09 0.07 0.10 0.10 0.09 0.10 0.10 0.12 0.14 0.13 0.09
0.49 0.55 0.55 0.54 0.52 0.51 0.49 0.48 0.57 0.58 0.59 0.52 0.38 0.25 0.38 0.35 0.19 0.19 0.15 0.17 0.19 0.17 0.19 0.17 0.16 0.14 0.12 0.12 0.11 0.12 0.11 0.12 0.14 0.12 0.08 0.09 0.09 0.07 0.08 0.14 0.14 0.12 0.10 0.12 0.08 0.08 0.11
0.48 0.54 0.54 0.55 0.53 0.50 0.49 0.53 0.56 0.57 0.59 0.49 0.31 0.29 0.36 0.30 0.15 0.16 0.18 0.17 0.18 0.17 0.16 0.16 0.15 0.16 0.15 0.12 0.10 0.12 0.13 0.13 0.14 0.11 0.09 0.09 0.08 0.06 0.07 0.10 0.13 0.11 0.10 0.11 0.11 0.10 0.08
0.46 0.53 0.52 0.54 0.53 0.50 0.51 0.57 0.56 0.56 0.57 0.47 0.31 0.23 0.27 0.26 0.25 0.18 0.16 0.16 0.16 0.20 0.18 0.18 0.16 0.16 0.13 0.12 0.14 0.12 0.12 0.15 0.17 0.12 0.12 0.11 0.09 0.09 0.08 0.11 0.13 0.11 0.11 0.10 0.09 0.07 0.08
0.44 0.49 0.51 0.52 0.54 0.52 0.53 0.58 0.55 0.54 0.55 0.44 0.33 0.26 0.29 0.20 0.20 0.19 0.18 0.18 0.15 0.15 0.18 0.18 0.16 0.15 0.13 0.12 0.11 0.11 0.12 0.13 0.15 0.14 0.13 0.10 0.08 0.12 0.13 0.15 0.15 0.13 0.11 0.10 0.09 0.09 0.08
0.41 0.44 0.48 0.51 0.56 0.55 0.54 0.58 0.55 0.54 0.52 0.41 0.31 0.27 0.29 0.25 0.24 0.19 0.19 0.17 0.16 0.16 0.16 0.15 0.15 0.17 0.15 0.13 0.12 0.10 0.13 0.14 0.13 0.14 0.14 0.13 0.08 0.11 0.11 0.15 0.17 0.13 0.12 0.11 0.11 0.11 0.11
0.43 0.42 0.45 0.50 0.56 0.57 0.56 0.58 0.58 0.51 0.51 0.42 0.44 0.43 0.29 0.24 0.21 0.18 0.18 0.19 0.18 0.19 0.19 0.19 0.19 0.18 0.16 0.16 0.17 0.18 0.18 0.18 0.17 0.15 0.15 0.12 0.09 0.09 0.07 0.14 0.15 0.09 0.10 0.11 0.11 0.12 0.11
0.45 0.43 0.45 0.52 0.57 0.59 0.57 0.58 0.60 0.53 0.50 0.49 0.47 0.42 0.26 0.20 0.21 0.19 0.21 0.22 0.20 0.20 0.17 0.20 0.21 0.19 0.21 0.24 0.21 0.20 0.19 0.18 0.18 0.17 0.18 0.10 0.09 0.10 0.08 0.11 0.06 0.10 0.14 0.15 0.12 0.12 0.13
0.48 0.48 0.45 0.51 0.58 0.60 0.58 0.58 0.60 0.57 0.50 0.44 0.49 0.42 0.29 0.22 0.24 0.23 0.23 0.23 0.23 0.23 0.21 0.21 0.23 0.25 0.27 0.21 0.15 0.13 0.12 0.12 0.11 0.12 0.11 0.12 0.10 0.08 0.08 0.06 0.09 0.10 0.13 0.13 0.11 0.10 0.13
0.51 0.50 0.46 0.51 0.59 0.61 0.59 0.57 0.58 0.59 0.54 0.45 0.44 0.51 0.37 0.26 0.24 0.29 0.24 0.25 0.21 0.19 0.20 0.22 0.28 0.27 0.25 0.18 0.16 0.11 0.09 0.10 0.10 0.11 0.12 0.12 0.12 0.09 0.08 0.06 0.05 0.09 0.11 0.13 0.15 0.09 0.13
0.54 0.51 0.49 0.51 0.59 0.62 0.60 0.58 0.58 0.59 0.58 0.49 0.44 0.49 0.40 0.29 0.33 0.30 0.25 0.24 0.25 0.23 0.19 0.23 0.22 0.22 0.23 0.18 0.14 0.12 0.11 0.13 0.09 0.09 0.09 0.08 0.08 0.07 0.07 0.07 0.07 0.12 0.14 0.16 0.09 0.09 0.14
0.55 0.53 0.50 0.52 0.58 0.62 0.60 0.59 0.59 0.59 0.58 0.53 0.47 0.50 0.41 0.33 0.34 0.36 0.33 0.28 0.27 0.25 0.19 0.23 0.22 0.22 0.19 0.16 0.15 0.14 0.13 0.13 0.12 0.12 0.09 0.09 0.08 0.08 0.09 0.07 0.06 0.16 0.17 0.13 0.15 0.16 0.16
0.57 0.54 0.53 0.55 0.59 0.62 0.61 0.61 0.60 0.59 0.59 0.55 0.45 0.53 0.50 0.38 0.36 0.45 0.41 0.38 0.37 0.34 0.26 0.26 0.22 0.22 0.22 0.19 0.18 0.16 0.13 0.14 0.13 0.08 0.15 0.09 0.10 0.10 0.11 0.09 0.16 0.20 0.18 0.19 0.19 0.16 0.17
Wind_Speed
11 11 11 10 10 10 9 8 8 7 8 8 8 7 7 6 6 6 6 6 6 5 5 6 8 8 7 8 11 17 20 20 16 15 14 14 13 14 14 15 17 16 15 17 20 20 18
12 12 11 11 11 11 10 9 8 7 8 8 8 8 7 7 6 6 5 5 5 5 6 7 8 8 8 8 16 19 21 18 16 15 15 15 15 16 16 17 17 18 19 20 19 20 19
13 13 13 13 12 12 12 11 10 9 8 9 9 8 7 7 7 6 6 6 6 6 7 8 10 7 9 12 16 20 20 18 18 16 16 15 15 15 17 18 18 21 20 19 19 22 20
14 14 13 14 13 13 13 12 11 10 10 10 9 9 7 7 7 6 6 6 7 8 8 10 9 8 8 15 18 19 20 19 17 15 15 16 14 15 18 21 20 20 18 19 21 21 23
14 14 14 14 14 14 13 12 11 10 10 10 10 9 8 8 7 6 7 8 8 9 9 10 9 8 11 17 18 20 19 19 18 16 16 14 15 16 21 21 21 20 22 23 24 22 24
15 14 14 15 14 14 14 12 11 10 10 10 10 9 9 9 7 7 8 8 9 9 9 10 13 8 15 15 18 20 21 19 17 18 16 17 17 18 22 22 22 25 25 25 24 27 26
15 14 14 14 14 14 14 12 11 10 10 11 11 10 9 10 9 8 9 7 10 10 11 9 9 10 13 14 18 21 22 19 19 18 16 17 18 20 20 22 23 25 27 27 29 28 29
15 14 14 15 15 14 14 12 11 10 11 11 11 11 10 10 10 9 9 9 8 8 9 9 10 14 14 12 16 24 24 19 22 21 18 17 19 20 22 25 27 28 29 30 33 32 31
15 14 14 14 15 15 14 13 11 11 11 12 12 12 11 10 10 11 10 9 9 7 7 9 10 14 17 14 17 25 26 22 22 22 21 18 22 26 27 31 34 33 34 34 38 38 35
15 14 14 14 14 15 15 14 12 11 12 12 13 13 13 11 11 12 11 11 9 7 6 11 13 14 20 14 16 26 27 24 23 23 22 21 27 29 33 33 36 41 38 43 44 36 31
15 14 14 14 14 15 15 14 13 11 12 12 14 15 14 14 12 12 12 10 8 7 7 12 13 14 19 17 19 26 28 24 22 23 25 28 30 32 35 39 42 42 39 38 36 35 32
16 15 15 15 15 15 15 15 14 13 11 12 13 15 15 14 14 12 11 9 7 8 7 10 12 16 18 20 21 21 26 26 22 24 28 28 28 33 38 44 39 34 30 29 22 20 22
15 15 15 15 16 16 16 16 15 14 11 12 13 15 16 14 14 13 10 8 8 8 11 13 14 16 17 22 21 23 27 31 28 29 34 31 29 37 39 39 30 26 23 13 9 1 5
15 15 16 16 16 17 17 17 16 15 12 12 12 14 15 16 14 11 8 8 9 9 10 13 15 15 16 22 21 25 25 25 31 29 30 32 34 40 38 28 21 22 14 9 9 6 1
15 15 16 16 16 17 18 18 17 16 14 12 11 12 16 16 12 9 8 9 6 9 11 14 14 15 18 21 21 23 25 25 29 33 30 32 30 32 31 22 20 19 16 14 5 6 3
15 15 16 16 17 17 18 19 18 17 14 12 11 10 14 15 11 9 9 7 7 10 11 12 14 16 19 22 23 23 25 27 27 31 30 30 29 28 26 19 17 14 14 12 11 6 2
15 16 16 17 17 18 19 19 19 17 15 11 10 9 13 13 10 10 8 8 8 11 11 13 14 16 19 21 23 23 25 25 28 31 30 29 26 27 20 19 19 16 12 10 6 9 4
14 16 16 17 17 18 19 20 19 17 15 10 9 8 12 11 9 9 9 8 9 12 12 13 15 17 20 22 23 22 23 24 28 30 30 29 25 24 17 14 18 17 13 10 7 8 6
13 15 16 17 18 18 19 20 19 17 14 8 7 8 12 9 9 9 10 10 10 11 14 14 17 19 21 22 22 23 23 24 27 29 30 30 27 24 20 16 16 14 15 11 7 5 7
12 14 16 17 17 18 19 20 20 16 12 8 7 7 10 12 11 10 9 11 10 12 13 15 17 19 22 22 23 23 24 24 27 26 30 27 26 20 16 14 13 12 14 15 10 7 8
12 14 16 16 16 17 18 19 20 15 10 7 7 6 7 8 10 9 9 9 10 12 13 17 17 20 22 22 24 22 24 25 25 25 28 27 26 22 17 14 13 10 12 12 11 8 8
12 14 15 14 15 16 17 19 19 16 9 7 6 6 8 8 8 9 10 10 11 12 14 15 17 20 22 22 22 24 24 24 23 25 28 28 26 22 17 11 12 11 12 11 10 10 11
12 13 13 13 14 15 16 17 17 16 9 6 6 6 7 8 7 8 8 9 10 11 14 15 17 20 22 23 23 23 23 23 24 26 28 27 26 25 20 14 11 15 12 10 10 10 10
12 12 11 12 13 14 14 15 16 14 12 7 6 6 7 7 7 7 7 10 12 13 14 15 18 21 22 26 26 23 22 23 23 24 24 26 26 23 19 16 15 14 10 10 10 12 12
11 11 11 11 12 12 12 13 13 12 10 9 6 6 6 6 6 8 8 11 13 15 15 15 19 21 24 25 24 24 23 25 25 25 23 25 26 24 18 18 16 13 11 11 11 15 12
11 11 10 10 10 11 11 11 11 10 10 7 8 7 7 6 7 8 8 12 13 14 16 16 19 22 23 22 23 22 22 24 24 26 24 27 25 22 21 18 15 14 13 13 12 14 13
11 10 10 9 10 10 10 10 10 9 8 7 8 8 7 7 8 8 8 11 13 14 15 17 20 21 22 22 22 22 22 23 24 25 26 27 26 23 21 18 18 17 15 14 13 15 16
11 10 9 9 9 10 9 9 9 9 8 6 7 10 8 8 8 10 9 11 13 14 14 17 19 21 21 21 20 22 21 22 23 24 25 25 24 24 22 20 18 19 19 15 15 16 16
11 10 9 9 10 10 9 9 9 9 8 7 8 10 9 8 9 10 10 12 14 15 14 17 17 18 19 20 21 21 21 22 23 23 24 23 23 22 19 18 22 20 19 18 17 16 17
Wind_Direction
34 32 30 27 23 18 14 11 11 15 17 15 16 19 21 27 36 42 43 39 35 31 17 0 354 351 336 339 333 328 327 325 320 316 313 309 305 299 295 289 291 274 280 283 279 276 272
34 32 30 27 24 20 18 17 16 16 17 19 21 25 34 40 43 40 29 18 14 8 359 350 348 345 347 348 332 332 329 328 324 317 310 307 302 296 291 288 285 283 284 282 276 279 271
36 38 36 33 30 28 27 28 31 33 31 31 35 37 41 42 33 23 18 14 7 356 348 340 335 328 351 335 334 335 334 329 324 313 308 305 302 301 298 294 288 286 285 280 282 283 273
39 38 36 35 33 33 33 36 40 43 43 41 41 39 37 27 21 17 13 2 357 350 342 336 335 336 331 341 338 341 339 337 335 329 312 309 305 306 308 297 296 292 286 282 280 286 276
37 37 37 35 35 33 34 37 41 44 44 40 34 29 26 14 12 13 6 354 345 342 350 350 342 333 338 340 346 344 345 340 331 328 339 318 312 313 314 307 299 298 289 286 283 283 280
39 39 37 35 35 34 34 37 41 44 38 29 23 17 11 5 356 350 347 350 355 343 331 335 359 338 345 342 347 348 348 345 339 331 318 330 321 318 324 318 301 295 290 285 281 283 282
37 37 36 34 33 33 33 33 34 31 23 17 12 8 4 2 357 345 338 333 334 344 360 5 351 356 338 345 356 356 347 345 345 341 329 332 337 328 325 321 312 304 295 289 285 282 284
35 35 35 32 31 29 27 26 25 23 18 12 8 5 1 0 1 350 346 337 334 325 343 347 0 354 345 348 348 355 352 350 349 348 337 330 341 327 323 323 316 307 296 289 283 286 280
34 34 33 30 28 26 24 22 22 19 14 11 7 3 356 353 350 352 355 345 338 336 336 347 348 354 350 353 352 350 350 345 348 348 349 343 330 328 326 324 317 305 293 290 285 283 272
32 30 29 26 24 21 19 18 17 15 13 10 7 3 360 349 348 344 345 338 338 338 350 344 348 349 351 341 349 353 349 347 346 344 338 333 331 331 328 324 317 304 297 292 283 275 262
28 26 24 21 18 16 14 12 9 5 5 5 5 5 2 3 349 348 342 344 343 347 357 339 350 347 353 360 342 351 352 349 349 350 346 330 333 332 331 324 319 308 306 295 278 266 259
24 22 18 15 13 11 8 6 4 358 355 358 359 0 359 353 356 351 350 353 356 0 350 343 349 347 351 352 352 351 357 353 347 340 342 334 336 337 333 329 323 317 316 309 284 264 250
18 17 15 11 9 7 5 2 359 355 350 352 355 356 356 354 350 349 352 356 0 18 348 345 343 346 351 349 351 350 355 3 353 343 344 341 341 339 339 337 337 337 338 333 348 344 260
12 11 10 8 7 6 3 1 358 354 349 344 345 352 357 355 350 355 2 8 24 358 355 348 347 352 356 351 348 353 349 350 356 349 342 345 339 345 342 343 340 341 343 335 333 360 124
6 6 5 5 4 3 1 359 357 354 350 346 345 350 359 358 2 6 14 21 17 2 351 349 350 358 351 351 350 353 354 351 351 351 349 345 341 343 348 350 356 352 3 338 301 285 52
4 4 3 3 2 1 360 358 355 353 349 347 349 353 359 -0 9 18 27 38 22 6 358 2 4 359 353 349 353 352 352 350 348 349 348 343 340 343 348 353 359 358 352 7 19 355 19
1 2 2 2 1 360 358 356 356 355 352 351 358 3 2 6 19 27 40 39 32 12 9 7 1 359 355 352 349 351 351 349 348 346 349 347 346 343 352 0 357 356 351 355 352 18 26
357 359 360 0 359 359 358 358 358 357 357 4 10 15 6 21 28 34 40 35 28 14 13 8 5 2 355 353 353 352 350 349 348 348 350 348 348 346 347 352 2 3 352 346 355 353 357
352 356 357 358 358 359 359 360 359 359 3 10 24 24 20 30 40 41 46 38 31 18 12 7 4 2 357 354 352 351 351 347 349 354 353 350 352 351 349 345 349 358 3 2 357 333 336
345 350 353 355 357 359 0 1 1 1 7 20 30 26 27 40 50 57 48 29 26 18 14 10 1 359 356 355 354 349 349 349 347 350 354 356 354 354 344 339 340 350 4 5 358 334 300
340 345 349 353 357 360 1 2 4 5 11 24 31 36 37 29 33 45 38 25 18 8 6 5 1 359 354 353 351 352 350 349 350 352 355 356 351 352 350 342 348 340 350 357 3 350 343
335 340 346 351 356 359 1 3 6 9 17 35 39 45 41 40 32 34 21 17 11 3 2 359 359 354 355 352 350 348 350 351 350 353 355 355 352 353 344 345 331 333 335 343 345 345 340
328 334 341 347 353 357 1 5 9 14 23 41 42 46 36 17 21 21 9 9 2 1 356 356 353 353 352 350 346 342 343 344 345 349 351 352 353 353 349 350 341 331 324 327 327 332 338
322 328 335 341 348 353 359 4 10 18 28 40 36 28 23 12 16 9 8 2 353 349 350 350 352 352 350 349 346 351 351 348 350 349 351 353 352 353 351 358 348 331 333 323 320 322 322
313 321 326 333 341 348 354 0 7 15 23 31 21 16 13 10 5 6 2 358 353 350 350 348 349 348 347 352 355 357 357 359 0 1 0 357 355 354 1 352 344 351 340 325 320 321 318
304 313 318 324 335 342 347 354 1 8 14 18 18 9 7 12 343 350 350 351 349 349 349 349 348 349 353 354 357 359 357 357 357 358 357 358 2 3 358 357 352 347 343 336 333 322 318
295 304 310 316 327 335 340 346 351 355 359 8 6 1 355 356 344 346 340 344 348 348 346 345 348 350 352 354 356 357 354 356 356 356 356 357 1 1 358 356 349 350 349 347 334 325 324
286 294 301 308 319 325 330 336 340 345 346 346 351 354 347 345 338 342 341 343 344 343 344 343 350 350 353 355 355 352 354 355 354 353 355 358 3 0 1 4 1 356 348 341 335 330 326
276 283 291 302 310 314 317 323 329 334 336 332 335 341 340 338 330 331 333 336 337 336 340 343 344 347 348 353 350 353 351 353 354 354 356 358 0 358 0 354 348 352 348 346 342 337 333